This demonstration page uses our WeatherBlox Daily Observations layout. Learn more.

Left ArrowRight Arrow

44.8408, -93.29828

Hourly Observations for September 18, 2021

Temp ( °F °C ) Dew Point ( °F °C ) Humidity (%) Winds ( mph kmh ) Pressure ( in mb ) Visibility ( mi km ) Precip ( " mm )
12:53 am 00:53 Clear 56 13.3 47 8.3 72 72 Calm 30.22 1023 10 16 0.00 0.00
1:53 am 01:53 Clear 53 11.7 47 8.3 80 80 Calm 30.22 1024 10 16 0.00 0.00
2:53 am 02:53 Clear 53 11.7 47 8.3 80 80 Calm 30.22 1024 10 16 0.00 0.00
3:53 am 03:53 Clear 50 10 47 8.3 89 89 Calm 30.23 1024 10 16 0.00 0.00
4:53 am 04:53 Clear 51 10.6 50 10 96 96 Calm 30.23 1024 10 16 0.00 0.00
5:53 am 05:53 Clear 51 10.6 48 8.9 89 89 ESE 3 6 30.23 1024 10 16 0.00 0.00
6:53 am 06:53 Mostly Clear 51 10.6 48 8.9 89 89 Calm 30.23 1024 10 16 0.00 0.00
7:53 am 07:53 Partly Cloudy with Nearby Fog 52 11.1 48 8.9 86 86 ESE 6 9 30.23 1024 10 16 0.00 0.00
8:53 am 08:53 Mostly Sunny 56 13.3 47 8.3 72 72 SE 5 7 30.24 1024 10 16 0.00 0.00
9:53 am 09:53 Mostly Sunny 61 16.1 47 8.3 60 60 SE 8 13 30.23 1024 10 16 0.00 0.00
10:53 am 10:53 Mostly Sunny 67 19.4 46 7.8 47 47 SSE 10 17 30.22 1023 10 16 0.00 0.00
11:53 am 11:53 Mostly Sunny 69 20.6 44 6.7 41 41 SSE 13 20 30.19 1022 10 16 0.00 0.00
12:53 pm 12:53 Mostly Sunny 72 22.2 45 7.2 38 38 SE 14 22 30.16 1021 10 16 0.00 0.00
1:53 pm 13:53 Sunny 75 23.9 45 7.2 34 34 S 7 11 30.13 1020 10 16 0.00 0.00
2:53 pm 14:53 Mostly Sunny 76 24.4 43 6.1 31 31 SSE 12 19 30.09 1019 10 16 0.00 0.00
3:53 pm 15:53 Mostly Sunny 78 25.6 43 6.1 29 29 SE 10 17 30.06 1018 10 16 0.00 0.00
4:53 pm 16:53 Sunny 78 25.6 45 7.2 31 31 SE 13 20 30.03 1017 10 16 0.00 0.00
5:53 pm 17:53 Sunny 77 25 46 7.8 33 33 SSE 12 19 30.01 1016 10 16 0.00 0.00
6:53 pm 18:53 Sunny 74 23.3 48 8.9 40 40 SSE 9 15 30.00 1016 10 16 0.00 0.00
7:53 pm 19:53 Clear 72 22.2 49 9.4 44 44 SSE 10 17 29.99 1016 10 16 0.00 0.00
8:53 pm 20:53 Clear 71 21.7 50 10 47 47 SSE 14 22 29.98 1015 10 16 0.00 0.00
9:53 pm 21:53 Clear 69 20.6 51 10.6 53 53 SSE 10 17 29.98 1015 10 16 0.00 0.00
10:53 pm 22:53 Clear 67 19.4 52 11.1 59 59 SSE 8 13 29.97 1015 10 16 0.00 0.00
11:53 pm 23:53 Clear 68 20 54 12.2 61 61 SSE 13 20 29.97 1015 10 16 0.00 0.00

Powered by AerisWeather